CW3577 Weather Reports


Display with metric or nautical units.
time (UTC)temp
F
wind
direction
speed
MPH
gust
MPH
rain 1hr
in
rain 24hr
in
rain mn
in
humidity
%
barometer
mb
20260509164556 47 121 0.0 3.0 0.04 0.11 0.11 90 1014.9
20260509164505 47 121 0.0 3.0 0.04 0.11 0.11 89 1014.9
20260509163020 47 124 0.0 2.0 0.03 0.10 0.10 89 1014.9
20260509161551 47 38 0.0 3.0 0.03 0.09 0.09 89 1014.7
20260509160015 47 40 1.0 4.0 0.03 0.08 0.08 89 1014.7
20260509154536 47 13 1.0 4.0 0.02 0.07 0.07 89 1014.9
20260509153056 47 176 0.0 2.0 0.03 0.07 0.07 88 1015.2
20260509151522 47 151 0.0 2.0 0.03 0.06 0.06 88 1015.3
20260509150100 46 360 0.0 2.0 0.02 0.05 0.05 87 1015.6
20260509144504 46 360 0.0 3.0 0.03 0.05 0.05 87 1015.6
20260509143029 46 360 1.0 4.0 0.03 0.04 0.04 86 1015.8
20260509141555 46 177 0.0 4.0 0.02 0.03 0.03 88 1015.8
20260509140016 46 180 1.0 3.0 0.03 0.03 0.03 87 1015.8
20260509134550 46 186 0.0 2.0 0.02 0.02 0.02 87 1015.6
20260509133022 46 187 0.0 1.0 0.01 0.01 0.01 86 1015.4
20260509131541 45 187 0.0 0.0 0.01 0.01 0.01 84 1015.4
20260509130006 45 190 0.0 2.0 0.00 0.00 0.00 84 1015.4
20260509124523 45 191 1.0 3.0 0.00 0.00 0.00 81 1015.5
20260509123048 45 254 0.0 1.0 0.00 0.00 0.00 80 1015.6
20260509121521 44 253 0.0 2.0 0.00 0.00 0.00 81 1015.8
20260509120038 43 252 0.0 2.0 0.00 0.00 0.00 84 1015.8
20260509114551 42 189 1.0 8.0 0.00 0.00 0.00 86 1016.0
20260509113018 40 269 1.0 3.0 0.00 0.00 0.00 89 1015.6
20260509111534 39 261 0.0 1.0 0.00 0.00 0.00 91 1015.8
20260509110058 38 261 0.0 1.0 0.00 0.00 0.00 92 1015.8
20260509104531 37 261 0.0 0.0 0.00 0.00 0.00 92 1015.7
20260509103046 37 261 0.0 2.0 0.00 0.00 0.00 92 1015.6
20260509101509 36 261 0.0 0.0 0.00 0.00 0.00 91 1015.6
20260509100033 35 261 0.0 1.0 0.00 0.00 0.00 91 1015.4
20260509094550 34 261 0.0 1.0 0.00 0.00 0.00 90 1015.2
20260509093006 34 261 0.0 1.0 0.00 0.00 0.00 90 1015.1
20260509091533 34 261 0.0 1.0 0.00 0.00 0.00 90 1015.0
20260509090104 34 261 0.0 1.0 0.00 0.00 0.00 90 1015.0
20260509084529 34 261 0.0 0.0 0.00 0.00 0.00 88 1015.0
20260509083043 35 261 0.0 1.0 0.00 0.00 0.00 89 1014.8
20260509081519 35 261 0.0 1.0 0.00 0.00 0.00 88 1014.9
20260509080027 35 261 0.0 0.0 0.00 0.00 0.00 88 1014.9
20260509074600 35 261 0.0 1.0 0.00 0.00 0.00 88 1014.9
20260509073014 36 261 0.0 1.0 0.00 0.00 0.00 87 1014.7
20260509071544 36 261 1.0 2.0 0.00 0.00 0.00 87 1014.7
20260509070058 36 261 0.0 0.0 0.00 0.00 0.00 86 1014.7
20260509070006 36 261 0.0 0.0 0.00 0.00 0.00 86 1014.7
20260509064524 36 261 0.0 1.0 0.00 0.00 0.00 85 1014.6
20260509063053 37 261 0.0 2.0 0.00 0.00 0.00 85 1014.5
20260509061515 37 261 0.0 1.0 0.00 0.00 0.00 84 1014.6
20260509060043 37 261 0.0 2.0 0.00 0.00 0.00 84 1014.6
20260509054502 37 261 0.0 1.0 0.00 0.00 0.00 82 1014.8
20260509053029 38 261 0.0 1.0 0.00 0.00 0.00 82 1014.7
20260509051549 38 261 0.0 1.0 0.00 0.00 0.00 81 1014.5
20260509050009 39 261 0.0 1.0 0.00 0.00 0.00 80 1014.5
20260509044540 39 261 0.0 2.0 0.00 0.00 0.00 79 1014.5
20260509043102 39 261 0.0 1.0 0.00 0.00 0.00 77 1014.5
20260509041515 40 261 0.0 1.0 0.00 0.00 0.00 76 1014.3
20260509040041 41 261 0.0 1.0 0.00 0.00 0.00 75 1014.2
20260509034502 41 261 0.0 1.0 0.00 0.00 0.00 74 1014.1
20260509033030 42 261 0.0 2.0 0.00 0.00 0.00 73 1014.1
20260509031558 42 261 0.0 1.0 0.00 0.00 0.00 70 1013.9
20260509030020 43 261 0.0 0.0 0.00 0.00 0.00 68 1013.8
20260509024537 44 261 0.0 1.0 0.00 0.00 0.00 66 1013.7
20260509023009 45 261 0.0 1.0 0.00 0.00 0.00 64 1013.6
20260509021524 46 261 0.0 1.0 0.00 0.00 0.00 62 1013.5
20260509020048 47 261 0.0 1.0 0.00 0.00 0.00 60 1013.2
20260509014505 49 261 0.0 1.0 0.00 0.00 0.00 57 1013.1
20260509013045 50 261 0.0 2.0 0.00 0.00 0.00 52 1012.8
20260509011547 50 269 0.0 3.0 0.00 0.00 0.00 51 1012.6
20260509010013 51 299 1.0 7.0 0.00 0.00 0.00 49 1012.3
20260509004536 52 276 2.0 5.0 0.00 0.00 0.00 47 1011.9
20260509003049 52 304 4.0 10.0 0.00 0.00 0.00 45 1011.6
20260509001513 53 288 2.0 9.0 0.00 0.00 0.00 44 1011.4
20260509000029 53 328 2.0 4.0 0.00 0.00 0.00 43 1011.1
20260508234558 54 18 6.0 14.0 0.00 0.00 0.00 40 1010.9
20260508233017 55 315 7.0 16.0 0.00 0.00 0.00 38 1010.5
20260508231551 56 323 3.0 14.0 0.00 0.00 0.00 35 1010.3
20260508230024 57 274 6.0 16.0 0.00 0.00 0.00 35 1010.1
20260508224555 57 284 5.0 13.0 0.00 0.00 0.00 35 1009.8
20260508223055 57 289 5.0 10.0 0.00 0.00 0.00 34 1009.9
20260508221525 58 288 4.0 15.0 0.00 0.00 0.00 33 1009.8
20260508220043 59 269 1.0 10.0 0.00 0.00 0.00 33 1009.8
20260508214511 59 305 7.0 13.0 0.00 0.00 0.00 32 1009.6
20260508213044 59 286 8.0 14.0 0.00 0.00 0.00 33 1009.6
20260508211559 61 270 3.0 13.0 0.00 0.00 0.00 33 1009.4
20260508211501 61 236 2.0 13.0 0.00 0.00 0.00 32 1009.4
20260508210031 59 306 3.0 13.0 0.00 0.00 0.00 32 1009.3
20260508204553 59 279 3.0 7.0 0.00 0.00 0.00 33 1009.3
20260508203019 58 309 3.0 11.0 0.00 0.00 0.00 33 1009.3
20260508201542 59 271 3.0 16.0 0.00 0.00 0.00 35 1009.2
20260508200014 59 298 2.0 14.0 0.00 0.00 0.00 35 1009.3
20260508194532 60 264 6.0 14.0 0.00 0.00 0.00 37 1009.3
20260508193128 61 257 5.0 14.0 0.00 0.00 0.00 35 1009.3
20260508191517 60 279 5.0 14.0 0.00 0.00 0.00 36 1009.3
20260508190045 59 303 6.0 14.0 0.00 0.00 0.00 34 1009.4
20260508184513 59 252 3.0 14.0 0.00 0.00 0.00 33 1009.3
20260508183040 60 277 7.0 16.0 0.00 0.00 0.00 31 1009.1
20260508181602 61 290 6.0 16.0 0.00 0.00 0.00 33 1009.2
20260508180028 59 296 6.0 14.0 0.00 0.00 0.00 35 1009.2
20260508174608 58 234 4.0 16.0 0.00 0.00 0.00 35 1009.3
20260508173014 59 296 6.0 11.0 0.00 0.00 0.00 43 1009.4
20260508171604 58 266 7.0 17.0 0.00 0.00 0.00 36 1009.4
20260508170056 59 250 9.0 17.0 0.00 0.00 0.00 37 1009.3